Location: Le Vaud
(46.4779°N, 6.2346°E)
Time: 09:20:13
(UTC+00:00)

USA 215 - Pass Details

Date: 18 February 2020
Orbit: 1098 x 1110 km, 123.0° (Epoch: 08 March)

Event Time Altitude Azimuth Distance (km) Brightness Sun altitude
Rises 02:29:13 0° 52° (NE) 3,925 7.0 -41.7°
Reaches altitude 10° 02:31:43 10° 51° (NE) 2,967 6.2 -41.3°
Enters shadow 02:35:33 38° 43° (NE) 1,616 4.4 -40.8°
